This is the latest recevied weather packets stored in our database for station/object DJ0JJ-11. If no packets are shown the sender has not sent any weather packets the latest 10 day(s).
| Time | Temp. | Humidity | Pressure | Rain* | Wind** | Luminosity | Snow |
|---|---|---|---|---|---|---|---|
| 1777527793 | 9.44° C | 41% | 1026 hPa | - | - | - | - |
| 1777526893 | 8.89° C | 40% | 1026 hPa | - | - | - | - |
| 1777525993 | 8.33° C | 41% | 1025.9 hPa | - | - | - | - |
| 1777525093 | 8.33° C | 42% | 1025.8 hPa | - | - | - | - |
| 1777524193 | 8.33° C | 42% | 1025.8 hPa | - | - | - | - |
| 1777523293 | 8.33° C | 42% | 1025.8 hPa | - | - | - | - |
| 1777522395 | 8.33° C | 42% | 1025.6 hPa | - | - | - | - |
| 1777521492 | 7.78° C | 43% | 1025.6 hPa | - | - | - | - |
| 1777520592 | 8.33° C | 43% | 1025.5 hPa | - | - | - | - |
| 1777519692 | 8.33° C | 43% | 1025.5 hPa | - | - | - | - |
| 1777518792 | 8.89° C | 41% | 1025.6 hPa | - | - | - | - |
| 1777517892 | 8.89° C | 41% | 1025.6 hPa | - | - | - | - |
| 1777516992 | 9.44° C | 40% | 1025.7 hPa | - | - | - | - |
| 1777516091 | 9.44° C | 41% | 1025.5 hPa | - | - | - | - |
| 1777515191 | 10° C | 40% | 1025.5 hPa | - | - | - | - |
| 1777514291 | 10° C | 40% | 1025.5 hPa | - | - | - | - |
| 1777513391 | 10° C | 41% | 1025.5 hPa | - | - | - | - |
| 1777512491 | 10.56° C | 39% | 1025.3 hPa | - | - | - | - |
| 1777511591 | 10.56° C | 40% | 1025.3 hPa | - | - | - | - |
| 1777510691 | 10.56° C | 40% | 1025.2 hPa | - | - | - | - |
| 1777509790 | 11.11° C | 40% | 1025.1 hPa | - | - | - | - |
| 1777508890 | 11.11° C | 40% | 1024.9 hPa | - | - | - | - |
| 1777507990 | 11.11° C | 40% | 1024.8 hPa | - | - | - | - |
| 1777507090 | 11.11° C | 40% | 1024.8 hPa | - | - | - | - |
| 1777506190 | 11.67° C | 38% | 1024.7 hPa | - | - | - | - |
* Rain since midnight (hover to see other rain measurements)
** Current wind speed in m/s (hover to see current wind gust speed)